{"data":{"norad_id":62496,"intl_designator":"2025-003K","name":"STARLINK-32718","alt_names":[],"object_type":"PAYLOAD","status":"ACTIVE","operator":null,"country":"US","launch_date":"2025-01-06","launch_site_code":"AFETR","launch_vehicle":null,"mission":null,"orbit_class":"UNKNOWN","rcs_meters":null,"size_class":null,"mass_kg":null,"dimensions":null,"purposes":["comms"],"wikipedia_slug":null,"has_3d_model":false,"image_url":null,"decayed_at":null,"tle_current":{"epoch":"2026-09-21T16:58:23.562624Z","epoch_age_seconds":70269,"freshness":"FRESH","line1":"1 62496U 25003K   26264.70721716  .00002393  00000+0  96385-4 0  9999","line2":"2 62496  43.0036 261.6462 0001396 277.5658  82.5035 15.27600438 96533","mean_motion":15.27600438,"eccentricity":0.0001396,"inclination_deg":43.0036,"raan_deg":261.6462,"arg_perigee_deg":277.5658,"mean_anomaly_deg":82.5035,"bstar":9.6385e-5,"rev_number":9653,"period_min":94.265487504397,"perigee_km":482.03008496168,"apogee_km":483.9457110332,"semimajor_km":6861.1248979974,"source":"CELESTRAK","updated_at":"2026-09-22T09:00:49.617877Z"}}}